World > North America > United States > Iowa > Coon Rapids  

Coon Rapids, IA Hourly Weather Updates

Feedback E-mail the Weather

Quick Clicks

Coon Rapids, IA Weather Maps

°F °C°F °C
Coon Rapids Weather Map
UTC Time: 6/19/2024, 05:26
Your Time:

Coon Rapids, IA Regional Weather

Expires:202406190600;;273711
ASUS43 KDMX 190506
RWRIA 

WEATHER ROUNDUP FOR IOWA
NATIONAL WEATHER SERVICE DES MOINES IA
1200 AM CDT WED JUN 19 2024

NOTE: "FAIR" INDICATES FEW OR NO CLOUDS BELOW 12,000 FEET WITH NO
SIGNIFICANT WEATHER AND/OR OBSTRUCTIONS TO VISIBILITY.

* - THESE STATIONS ARE NOT NWS STATIONS...THUS NOT UNDER NWS
QUALITY CONTROL.  THEY ALSO DO NOT REPORT WEATHER SUCH 
AS PRECIPITATION OR FOG.  


IAZ001>003-012>014-020>022-031>034-043>046-190600-
   NORTHWEST IOWA
  
CITY           SKY/WX    TMP DP  RH WIND       PRES   REMARKS
CARROLL *      DRIZZLE   68  68 100 NW9G16    29.98R TC  20           
CHEROKEE *     LGT RAIN  63  61  94 NW7       30.00R TC  17           
DENISON *      DRIZZLE   64  64 100 N6        30.01R TC  18           
LE MARS *      CLOUDY    63  61  94 VRB6      30.00R TC  17           
MAURICE *      CLOUDY    63  61  94 NW7       29.99R TC  17           
SHELDON *      CLOUDY    63  61  94 NW6       30.00R TC  17           
SIOUX CITY     CLOUDY    64  62  93 N6        30.01R TC  18           
SPENCER        CLOUDY    65  61  87 NW12      29.99R TC  18           
STORM LAKE *   CLOUDY    64  64 100 W13       30.01R TC  18           
$$
 

SKY/WX - Weather  TMP - Temperature  DP - Dew Point  RH - Humidity
WIND - Wind Direction/Speed PRES - Barometric Pressure VSB - Visibility
WCI - Wind Chill Index E13G22 Wind - East Wind 13 mph/Gusts of 22 mph

Trending Headlines

Trending Entertainment Headlines

Coon Rapids Radar Loop

Use the map search tool if you want to place a location marker on the radar map...

Coon Rapids Quick Facts

National Two Day Weather Forecast


E-mail the Coon Rapids Weather Forecast

Voice your opinion or tell us about page issues...